Vorticity
nan nan nan nan nan nan nan nan nan nan nan nan nan nan nan nan nan nan nan nan nan nan nan nan nan nan nan nan nan nan nan nan nan nan nan nan nan nan nan nan nan nan nan nan
nan 14 7 6 10 13 7 7 -1 6 3 9 6 11 16 9 9 8 10 9 10 10 12 11 8 8 8 9 9 8 8 8 7 7 8 8 9 9 9 10 10 11 8 nan
nan 16 12 17 14 3 9 15 7 6 11 6 6 7 12 9 8 9 10 11 12 11 11 11 11 10 9 8 8 9 8 8 8 8 8 8 9 10 9 9 9 9 8 nan
nan 19 16 8 20 17 10 8 11 6 8 6 12 13 9 8 8 8 9 10 10 12 14 13 11 10 10 9 8 8 8 7 8 8 8 9 8 9 9 8 7 7 8 nan
nan 13 13 16 12 19 17 13 16 9 7 11 11 12 14 15 15 10 9 10 12 14 15 14 11 9 9 8 8 7 7 8 8 9 9 9 9 7 7 9 9 8 7 nan
nan 19 12 15 17 15 14 22 24 23 16 11 11 13 14 17 13 14 15 17 17 15 13 12 11 9 8 8 8 8 8 9 9 9 8 9 9 8 7 7 8 8 8 nan
nan 8 11 20 31 20 -1 17 26 21 19 18 14 14 19 22 18 16 17 19 17 13 9 12 11 9 9 9 9 9 10 9 9 10 9 8 8 9 9 9 9 9 10 nan
nan 10 18 13 16 8 2 10 13 16 20 19 19 18 25 23 23 20 17 16 11 9 13 11 8 9 9 8 10 10 9 9 9 9 9 10 10 10 10 9 9 7 8 nan
nan -0 14 12 2 8 12 11 9 11 17 18 17 15 17 18 18 18 13 10 11 9 11 12 10 8 8 9 10 9 9 9 9 9 10 10 10 8 9 9 10 10 8 nan
nan 14 10 6 4 8 9 11 12 12 14 12 14 13 14 15 13 13 14 12 11 10 8 9 11 11 10 10 8 8 8 10 10 9 9 8 8 9 9 9 9 9 9 nan
nan 12 17 19 12 10 6 7 9 13 14 15 13 12 12 11 12 13 13 12 11 9 10 11 9 10 10 10 8 9 8 8 8 8 10 9 9 10 8 7 8 7 6 nan
nan 11 9 19 16 10 10 9 9 10 11 15 15 13 11 11 11 11 13 13 12 11 9 8 9 10 10 9 9 8 7 8 9 9 9 9 9 8 9 10 8 7 7 nan
nan 15 9 8 20 18 11 13 11 10 13 13 13 14 12 11 13 13 12 10 10 10 9 9 9 9 10 10 10 7 9 9 8 9 9 9 9 10 13 14 11 12 9 nan
nan 5 9 8 18 19 15 14 14 14 14 15 13 13 13 13 12 11 12 10 10 9 8 10 10 9 10 11 9 9 9 9 10 9 9 9 10 10 9 10 12 17 12 nan
nan 3 14 18 13 13 14 12 12 11 12 12 12 13 13 13 5 4 10 12 12 10 10 11 10 8 10 12 11 10 9 9 8 10 10 10 9 9 9 9 9 8 10 nan
nan 10 16 16 10 11 11 10 10 11 11 11 12 14 14 11 9 8 10 12 10 8 9 9 10 10 10 9 8 8 8 11 10 8 9 9 9 9 9 9 9 9 9 nan
nan 11 8 11 13 12 10 10 12 12 12 13 13 12 11 7 6 7 6 9 14 15 11 10 11 12 10 11 8 6 9 8 9 9 9 9 10 10 9 10 9 9 10 nan
nan 13 17 16 14 12 12 13 14 13 12 10 8 8 11 11 8 7 8 10 10 11 10 11 13 12 11 10 7 7 9 10 10 9 9 10 9 10 10 11 10 9 10 nan
nan 18 18 17 14 13 14 14 11 10 10 10 9 9 10 13 11 10 9 9 11 11 11 10 11 12 9 9 9 8 10 9 9 10 11 11 11 11 11 11 11 12 11 nan
nan 17 17 14 14 12 9 9 11 9 9 9 10 10 10 11 12 11 10 11 10 12 17 13 10 10 11 13 10 9 12 11 10 10 11 11 12 13 12 12 12 13 12 nan
nan 13 12 9 9 13 12 11 12 9 10 14 12 10 9 11 14 14 10 9 11 10 11 12 11 13 14 11 11 11 11 11 11 12 11 12 11 11 11 13 14 13 11 nan
nan 10 12 12 10 12 16 15 9 10 12 12 13 13 11 9 6 4 14 17 12 12 10 11 10 12 15 11 11 11 10 10 11 11 11 11 11 12 12 12 12 11 11 nan
nan 15 14 13 11 9 13 13 14 14 14 13 13 11 10 10 11 10 13 12 13 12 11 12 12 10 8 10 11 10 11 11 11 11 11 10 10 11 11 11 11 12 11 nan
nan 13 14 14 12 9 10 11 12 13 13 13 13 14 12 8 7 12 13 13 12 8 11 12 10 8 8 10 10 10 11 11 11 11 11 11 10 11 10 10 10 10 11 nan
nan 11 11 12 10 10 10 10 8 9 9 9 9 10 10 12 14 12 9 11 9 9 10 10 9 9 9 10 10 10 10 10 10 10 10 10 10 10 11 10 11 11 11 nan
nan 9 11 13 12 12 9 8 9 10 9 7 8 9 10 14 15 12 10 10 9 10 9 8 8 9 11 11 10 9 10 11 11 11 10 9 10 11 12 12 12 12 12 nan
nan nan nan nan nan nan nan nan nan nan nan nan nan nan nan nan nan nan nan nan nan nan nan nan nan nan nan nan nan nan nan nan nan nan nan nan nan nan nan nan nan nan nan nan
CAPE
16 0 5 7 19 14 50 1 1 0 0 0 0 0 0 0 0 0 0 0 0 0 0 0 0 0 0 0 0 0 0 0 0 0 0 0 0 0 0 0 0 0 0 0
23 2 12 9 6 23 22 0 3 0 0 0 5 5 0 0 0 0 0 0 0 0 0 0 0 0 0 0 0 0 0 0 0 0 0 0 0 0 0 0 0 0 0 0
41 1 9 25 1 0 1 12 1 7 0 0 0 0 0 0 0 0 0 0 0 0 0 0 0 0 0 0 0 0 0 0 0 0 0 0 0 0 0 0 0 0 0 2
35 67 25 3 0 0 0 0 0 0 2 3 0 0 0 0 0 0 0 0 0 0 0 0 0 0 0 0 0 0 0 0 0 0 0 0 0 0 0 0 1 3 4 4
72 103 7 11 0 0 0 0 0 0 0 0 0 0 0 2 0 0 0 0 0 0 0 0 0 0 0 0 0 0 0 0 0 0 0 0 0 0 1 2 3 4 3 4
1 52 64 0 0 6 0 0 0 0 0 0 0 7 0 0 0 0 0 0 0 0 0 0 0 0 0 0 0 0 0 0 0 0 0 0 0 2 3 2 2 2 0 0
2 10 14 4 0 14 8 0 0 0 0 0 0 0 0 0 0 0 0 0 0 0 0 0 0 0 0 0 0 0 0 0 0 0 0 0 1 3 3 4 0 0 0 1
1 12 27 4 1 24 0 0 0 0 0 0 0 0 0 0 0 0 0 0 0 0 0 0 0 0 0 0 0 0 0 0 0 0 0 0 2 2 0 0 0 0 1 1
75 8 17 0 16 0 0 0 0 0 0 0 0 0 0 0 0 0 0 0 0 0 0 0 0 0 0 0 0 0 0 0 0 0 0 0 0 0 0 0 0 0 0 2
7 0 10 0 0 0 0 0 0 0 0 0 0 0 0 0 0 0 0 0 0 0 0 0 0 0 0 0 0 0 0 0 0 1 0 0 0 0 1 1 2 0 4 8
1 0 0 0 0 0 0 0 0 0 0 0 0 0 0 0 0 0 0 0 0 0 0 0 0 0 0 0 0 0 1 2 5 7 3 0 0 0 0 0 1 1 1 2
2 0 10 0 0 0 0 0 0 0 0 0 0 0 0 0 0 0 0 0 0 0 0 0 0 0 0 0 0 0 0 0 0 1 6 5 0 0 0 0 0 0 0 1
9 2 12 0 0 0 0 0 0 0 0 0 0 0 0 0 0 0 0 0 0 0 0 0 0 0 0 0 0 0 0 0 0 0 0 1 3 2 9 4 0 0 0 0
6 0 0 0 0 0 0 0 0 0 0 0 0 0 0 0 0 0 0 0 0 0 0 0 0 0 0 0 0 0 0 0 0 0 2 5 5 7 6 2 2 11 3 0
0 0 0 0 0 0 0 0 0 0 0 0 0 0 0 0 0 0 0 0 0 0 0 0 0 0 1 0 0 2 2 0 5 10 8 5 10 6 4 4 3 3 4 2
0 0 0 0 0 0 0 0 0 0 0 0 0 0 0 0 0 0 0 0 0 0 0 0 0 4 1 0 2 0 1 0 0 0 1 2 4 7 6 6 6 6 8 11
0 0 0 0 0 0 0 0 0 0 0 0 0 0 0 0 0 0 0 1 0 0 0 0 0 0 0 0 0 0 0 0 0 0 0 0 1 5 4 6 7 7 20 31
0 0 0 0 0 0 0 0 0 0 0 0 0 0 0 0 0 0 1 0 0 0 1 2 0 0 0 0 0 0 0 0 0 0 0 0 0 0 2 4 7 9 12 11
0 0 0 0 0 0 0 0 0 0 0 0 0 0 0 0 0 0 0 0 0 0 0 0 0 0 0 0 0 0 0 0 0 0 0 0 2 2 5 11 13 21 14 15
0 0 0 0 0 0 0 0 0 0 0 0 0 0 0 0 0 0 0 0 0 0 0 0 0 0 0 0 0 0 0 0 0 2 15 9 19 18 14 5 11 30 36 30
0 0 0 0 0 0 0 0 0 0 0 0 0 0 0 0 0 0 0 0 0 0 0 0 0 0 0 0 0 4 4 3 8 11 12 21 23 15 7 11 26 26 36 36
0 0 0 0 0 0 0 0 0 0 0 0 0 0 0 0 1 2 1 0 3 0 0 2 2 0 1 0 2 7 8 7 12 9 6 4 6 6 6 14 17 27 29 30
0 0 0 0 0 0 0 0 0 0 0 0 0 0 0 0 0 0 1 2 2 0 1 2 0 0 0 3 6 10 11 10 13 17 21 17 14 19 26 26 31 44 48 38
0 0 1 0 0 0 1 3 4 4 3 5 2 4 3 8 8 4 2 0 0 0 6 0 0 0 0 3 6 8 10 13 16 21 19 9 25 26 31 30 29 36 48 71
0 0 0 0 0 4 4 2 4 3 5 2 1 0 0 1 4 5 4 0 0 0 0 0 0 0 0 5 9 8 11 14 17 21 20 21 20 19 21 20 20 39 48 59
0 0 0 0 0 0 0 0 1 3 3 5 5 5 3 0 0 0 0 0 0 0 0 3 2 1 5 7 12 13 17 18 20 24 23 27 31 29 32 28 38 34 28 38
0 0 0 0 0 1 1 0 1 2 3 4 4 7 4 4 0 0 0 1 2 2 3 8 13 9 11 12 15 19 24 27 21 25 29 31 26 36 47 47 34 44 38 46